"FRM_AIS_EDR_2063.DAT           ",2005-08-23T09:24:36.05 ,"1/0072869070.60515",    0,    0,  213808,"AIS","B1","B1","B0","B0","PISd",0,0,0,0,"B1", 0,15,   0, 0,    0,"AIS","N/A    ","OK ","OK ",    001173.720,    -065.575,    0090.139,    0014.634,    0047.683
"FRM_AIS_EDR_2063.DAT           ",2005-08-23T09:24:43.59 ,"1/0072869078.30579",    0,    1,  213808,"AIS","B1","B1","B0","B0","PISd",0,0,0,0,"B1", 0,15,   0, 0,    0,"AIS","N/A    ","OK ","OK ",    001163.341,    -065.250,    0090.220,    0014.642,    0047.517
"FRM_AIS_EDR_2063.DAT           ",2005-08-23T09:24:51.13 ,"1/0072869086.00642",    0,    2,  213808,"AIS","B1","B1","B0","B0","PISd",0,0,0,0,"B1", 0,15,   0, 0,    0,"AIS","N/A    ","OK ","OK ",    001152.993,    -064.923,    0090.300,    0014.649,    0047.352
"FRM_AIS_EDR_2063.DAT           ",2005-08-23T09:24:58.68 ,"1/0072869093.36241",    0,    3,  213808,"AIS","B1","B1","B0","B0","PISd",0,0,0,0,"B1", 0,15,   0, 0,    0,"AIS","N/A    ","OK ","OK ",    001142.676,    -064.594,    0090.376,    0014.656,    0047.187
"FRM_AIS_EDR_2063.DAT           ",2005-08-23T09:25:06.22 ,"1/0072869101.06305",    0,    4,  213808,"AIS","B1","B1","B0","B0","PISd",0,0,0,0,"B1", 0,15,   0, 0,    0,"AIS","N/A    ","OK ","OK ",    001132.392,    -064.264,    0090.451,    0014.663,    0047.023
"FRM_AIS_EDR_2063.DAT           ",2005-08-23T09:25:13.76 ,"1/0072869108.41904",    0,    5,  213808,"AIS","B1","B1","B0","B0","PISd",0,0,0,0,"B1", 0,15,   0, 0,    0,"AIS","N/A    ","OK ","OK ",    001122.141,    -063.932,    0090.524,    0014.670,    0046.860
"FRM_AIS_EDR_2063.DAT           ",2005-08-23T09:25:21.30 ,"1/0072869116.11967",    0,    6,  213808,"AIS","B1","B1","B0","B0","PISd",0,0,0,0,"B1", 0,15,   0, 0,    0,"AIS","N/A    ","OK ","OK ",    001111.923,    -063.599,    0090.595,    0014.677,    0046.697
"FRM_AIS_EDR_2063.DAT           ",2005-08-23T09:25:28.85 ,"1/0072869123.47567",    0,    7,  213808,"AIS","B1","B1","B0","B0","PISd",0,0,0,0,"B1", 0,15,   0, 0,    0,"AIS","N/A    ","OK ","OK ",    001101.738,    -063.264,    0090.664,    0014.684,    0046.535
"FRM_AIS_EDR_2063.DAT           ",2005-08-23T09:25:36.39 ,"1/0072869131.17630",    0,    8,  213808,"AIS","B1","B1","B0","B0","PISd",0,0,0,0,"B1", 0,15,   0, 0,    0,"AIS","N/A    ","OK ","OK ",    001091.588,    -062.927,    0090.731,    0014.690,    0046.374
"FRM_AIS_EDR_2063.DAT           ",2005-08-23T09:25:43.93 ,"1/0072869138.53229",    0,    9,  213808,"AIS","B1","B1","B0","B0","PISd",0,0,0,0,"B1", 0,15,   0, 0,    0,"AIS","N/A    ","OK ","OK ",    001081.473,    -062.589,    0090.796,    0014.696,    0046.213
"FRM_AIS_EDR_2063.DAT           ",2005-08-23T09:25:51.48 ,"1/0072869146.23293",    0,   10,  213808,"AIS","B1","B1","B0","B0","PISd",0,0,0,0,"B1", 0,15,   0, 0,    0,"AIS","N/A    ","OK ","OK ",    001071.393,    -062.250,    0090.860,    0014.703,    0046.053
"FRM_AIS_EDR_2063.DAT           ",2005-08-23T09:25:59.02 ,"1/0072869153.58892",    0,   11,  213808,"AIS","B1","B1","B0","B0","PISd",0,0,0,0,"B1", 0,15,   0, 0,    0,"AIS","N/A    ","OK ","OK ",    001061.348,    -061.909,    0090.922,    0014.709,    0045.894
"FRM_AIS_EDR_2063.DAT           ",2005-08-23T09:26:06.56 ,"1/0072869161.28955",    0,   12,  213808,"AIS","B1","B1","B0","B0","PISd",0,0,0,0,"B1", 0,15,   0, 0,    0,"AIS","N/A    ","OK ","OK ",    001051.340,    -061.566,    0090.982,    0014.715,    0045.735
"FRM_AIS_EDR_2063.DAT           ",2005-08-23T09:26:14.11 ,"1/0072869168.64555",    0,   13,  213808,"AIS","B1","B1","B0","B0","PISd",0,0,0,0,"B1", 0,15,   0, 0,    0,"AIS","N/A    ","OK ","OK ",    001041.369,    -061.221,    0091.041,    0014.721,    0045.578
"FRM_AIS_EDR_2063.DAT           ",2005-08-23T09:26:21.65 ,"1/0072869176.34618",    0,   14,  213808,"AIS","B1","B1","B0","B0","PISd",0,0,0,0,"B1", 0,15,   0, 0,    0,"AIS","N/A    ","OK ","OK ",    001031.435,    -060.875,    0091.098,    0014.727,    0045.421
"FRM_AIS_EDR_2063.DAT           ",2005-08-23T09:26:29.19 ,"1/0072869184.04681",    0,   15,  213808,"AIS","B1","B1","B0","B0","PISd",0,0,0,0,"B1", 0,15,   0, 0,    0,"AIS","N/A    ","OK ","OK ",    001021.539,    -060.528,    0091.154,    0014.732,    0045.266
"FRM_AIS_EDR_2063.DAT           ",2005-08-23T09:26:36.74 ,"1/0072869191.40280",    0,   16,  213808,"AIS","B1","B1","B0","B0","PISd",0,0,0,0,"B1", 0,15,   0, 0,    0,"AIS","N/A    ","OK ","OK ",    001011.681,    -060.178,    0091.208,    0014.738,    0045.111
"FRM_AIS_EDR_2063.DAT           ",2005-08-23T09:26:44.28 ,"1/0072869199.10344",    0,   17,  213808,"AIS","B1","B1","B0","B0","PISd",0,0,0,0,"B1", 0,15,   0, 0,    0,"AIS","N/A    ","OK ","OK ",    001001.863,    -059.828,    0091.260,    0014.744,    0044.957
"FRM_AIS_EDR_2063.DAT           ",2005-08-23T09:26:51.82 ,"1/0072869206.45943",    0,   18,  213808,"AIS","B1","B1","B0","B0","PISd",0,0,0,0,"B1", 0,15,   0, 0,    0,"AIS","N/A    ","OK ","OK ",    000992.084,    -059.475,    0091.312,    0014.749,    0044.805
"FRM_AIS_EDR_2063.DAT           ",2005-08-23T09:26:59.37 ,"1/0072869214.16006",    0,   19,  213808,"AIS","B1","B1","B0","B0","PISd",0,0,0,0,"B1", 0,15,   0, 0,    0,"AIS","N/A    ","OK ","OK ",    000982.345,    -059.121,    0091.362,    0014.754,    0044.653
"FRM_AIS_EDR_2063.DAT           ",2005-08-23T09:27:06.91 ,"1/0072869221.51606",    0,   20,  213808,"AIS","B1","B1","B0","B0","PISd",0,0,0,0,"B1", 0,15,   0, 0,    0,"AIS","N/A    ","OK ","OK ",    000972.647,    -058.766,    0091.410,    0014.760,    0044.503
"FRM_AIS_EDR_2063.DAT           ",2005-08-23T09:27:14.45 ,"1/0072869229.21669",    0,   21,  213808,"AIS","B1","B1","B0","B0","PISd",0,0,0,0,"B1", 0,15,   0, 0,    0,"AIS","N/A    ","OK ","OK ",    000962.990,    -058.408,    0091.458,    0014.765,    0044.354
"FRM_AIS_EDR_2063.DAT           ",2005-08-23T09:27:22.00 ,"1/0072869236.57268",    0,   22,  213808,"AIS","B1","B1","B0","B0","PISd",0,0,0,0,"B1", 0,15,   0, 0,    0,"AIS","N/A    ","OK ","OK ",    000953.375,    -058.049,    0091.504,    0014.770,    0044.206
"FRM_AIS_EDR_2063.DAT           ",2005-08-23T09:27:29.54 ,"1/0072869244.27332",    0,   23,  213808,"AIS","B1","B1","B0","B0","PISd",0,0,0,0,"B1", 0,15,   0, 0,    0,"AIS","N/A    ","OK ","OK ",    000943.802,    -057.689,    0091.549,    0014.775,    0044.059
"FRM_AIS_EDR_2063.DAT           ",2005-08-23T09:27:37.08 ,"1/0072869251.62931",    0,   24,  213808,"AIS","B1","B1","B0","B0","PISd",0,0,0,0,"B1", 0,15,   0, 0,    0,"AIS","N/A    ","OK ","OK ",    000934.272,    -057.327,    0091.593,    0014.780,    0043.914
"FRM_AIS_EDR_2063.DAT           ",2005-08-23T09:27:44.63 ,"1/0072869259.32994",    0,   25,  213808,"AIS","B1","B1","B0","B0","PISd",0,0,0,0,"B1", 0,15,   0, 0,    0,"AIS","N/A    ","OK ","OK ",    000924.786,    -056.963,    0091.636,    0014.785,    0043.770
"FRM_AIS_EDR_2063.DAT           ",2005-08-23T09:27:52.17 ,"1/0072869267.03058",    0,   26,  213808,"AIS","B1","B1","B0","B0","PISd",0,0,0,0,"B1", 0,15,   0, 0,    0,"AIS","N/A    ","OK ","OK ",    000915.344,    -056.598,    0091.677,    0014.790,    0043.627
"FRM_AIS_EDR_2063.DAT           ",2005-08-23T09:27:59.71 ,"1/0072869274.38657",    0,   27,  213808,"AIS","B1","B1","B0","B0","PISd",0,0,0,0,"B1", 0,15,   0, 0,    0,"AIS","N/A    ","OK ","OK ",    000905.947,    -056.231,    0091.718,    0014.794,    0043.486
"FRM_AIS_EDR_2063.DAT           ",2005-08-23T09:28:07.26 ,"1/0072869282.08720",    0,   28,  213808,"AIS","B1","B1","B0","B0","PISd",0,0,0,0,"B1", 0,15,   0, 0,    0,"AIS","N/A    ","OK ","OK ",    000896.595,    -055.862,    0091.757,    0014.799,    0043.346
"FRM_AIS_EDR_2063.DAT           ",2005-08-23T09:28:14.80 ,"1/0072869289.44320",    0,   29,  213808,"AIS","B1","B1","B0","B0","PISd",0,0,0,0,"B1", 0,15,   0, 0,    0,"AIS","N/A    ","OK ","OK ",    000887.289,    -055.492,    0091.795,    0014.804,    0043.208
"FRM_AIS_EDR_2063.DAT           ",2005-08-23T09:28:22.34 ,"1/0072869297.14383",    0,   30,  213808,"AIS","B1","B1","B0","B0","PISd",0,0,0,0,"B1", 0,15,   0, 0,    0,"AIS","N/A    ","OK ","OK ",    000878.029,    -055.120,    0091.833,    0014.808,    0043.072
"FRM_AIS_EDR_2063.DAT           ",2005-08-23T09:28:29.88 ,"1/0072869304.49982",    0,   31,  213808,"AIS","B1","B1","B0","B0","PISd",0,0,0,0,"B1", 0,15,   0, 0,    0,"AIS","N/A    ","OK ","OK ",    000868.817,    -054.746,    0091.869,    0014.813,    0042.937
"FRM_AIS_EDR_2063.DAT           ",2005-08-23T09:28:37.43 ,"1/0072869312.20046",    0,   32,  213808,"AIS","B1","B1","B0","B0","PISd",0,0,0,0,"B1", 0,15,   0, 0,    0,"AIS","N/A    ","OK ","OK ",    000859.652,    -054.371,    0091.905,    0014.817,    0042.804
"FRM_AIS_EDR_2063.DAT           ",2005-08-23T09:28:44.97 ,"1/0072869319.55645",    0,   33,  213808,"AIS","B1","B1","B0","B0","PISd",0,0,0,0,"B1", 0,15,   0, 0,    0,"AIS","N/A    ","OK ","OK ",    000850.536,    -053.994,    0091.939,    0014.822,    0042.673
"FRM_AIS_EDR_2063.DAT           ",2005-08-23T09:28:52.51 ,"1/0072869327.25708",    0,   34,  213808,"AIS","B1","B1","B0","B0","PISd",0,0,0,0,"B1", 0,15,   0, 0,    0,"AIS","N/A    ","OK ","OK ",    000841.468,    -053.616,    0091.973,    0014.826,    0042.543
"FRM_AIS_EDR_2063.DAT           ",2005-08-23T09:29:00.06 ,"1/0072869334.61308",    0,   35,  213808,"AIS","B1","B1","B0","B0","PISd",0,0,0,0,"B1", 0,15,   0, 0,    0,"AIS","N/A    ","OK ","OK ",    000832.451,    -053.235,    0092.006,    0014.830,    0042.415
"FRM_AIS_EDR_2063.DAT           ",2005-08-23T09:29:07.60 ,"1/0072869342.31371",    0,   36,  213808,"AIS","B1","B1","B0","B0","PISd",0,0,0,0,"B1", 0,15,   0, 0,    0,"AIS","N/A    ","OK ","OK ",    000823.483,    -052.854,    0092.038,    0014.834,    0042.290
"FRM_AIS_EDR_2063.DAT           ",2005-08-23T09:29:15.14 ,"1/0072869350.01434",    0,   37,  213808,"AIS","B1","B1","B0","B0","PISd",0,0,0,0,"B1", 0,15,   0, 0,    0,"AIS","N/A    ","OK ","OK ",    000814.566,    -052.470,    0092.069,    0014.838,    0042.166
"FRM_AIS_EDR_2063.DAT           ",2005-08-23T09:29:22.69 ,"1/0072869357.37034",    0,   38,  213808,"AIS","B1","B1","B0","B0","PISd",0,0,0,0,"B1", 0,15,   0, 0,    0,"AIS","N/A    ","OK ","OK ",    000805.701,    -052.085,    0092.099,    0014.842,    0042.044
"FRM_AIS_EDR_2063.DAT           ",2005-08-23T09:29:30.23 ,"1/0072869365.07097",    0,   39,  213808,"AIS","B1","B1","B0","B0","PISd",0,0,0,0,"B1", 0,15,   0, 0,    0,"AIS","N/A    ","OK ","OK ",    000796.888,    -051.699,    0092.129,    0014.846,    0041.924
"FRM_AIS_EDR_2063.DAT           ",2005-08-23T09:29:37.77 ,"1/0072869372.42696",    0,   40,  213808,"AIS","B1","B1","B0","B0","PISd",0,0,0,0,"B1", 0,15,   0, 0,    0,"AIS","N/A    ","OK ","OK ",    000788.128,    -051.310,    0092.157,    0014.850,    0041.807
"FRM_AIS_EDR_2063.DAT           ",2005-08-23T09:29:45.32 ,"1/0072869380.12760",    0,   41,  213808,"AIS","B1","B1","B0","B0","PISd",0,0,0,0,"B1", 0,15,   0, 0,    0,"AIS","N/A    ","OK ","OK ",    000779.421,    -050.920,    0092.185,    0014.854,    0041.692
"FRM_AIS_EDR_2063.DAT           ",2005-08-23T09:29:52.86 ,"1/0072869387.48359",    0,   42,  213808,"AIS","B1","B1","B0","B0","PISd",0,0,0,0,"B1", 0,15,   0, 0,    0,"AIS","N/A    ","OK ","OK ",    000770.768,    -050.529,    0092.213,    0014.858,    0041.579
"FRM_AIS_EDR_2063.DAT           ",2005-08-23T09:30:00.40 ,"1/0072869395.18422",    0,   43,  213808,"AIS","B1","B1","B0","B0","PISd",0,0,0,0,"B1", 0,15,   0, 0,    0,"AIS","N/A    ","OK ","OK ",    000762.169,    -050.136,    0092.239,    0014.862,    0041.468
"FRM_AIS_EDR_2063.DAT           ",2005-08-23T09:30:07.95 ,"1/0072869402.54021",    0,   44,  213808,"AIS","B1","B1","B0","B0","PISd",0,0,0,0,"B1", 0,15,   0, 0,    0,"AIS","N/A    ","OK ","OK ",    000753.627,    -049.741,    0092.265,    0014.866,    0041.359
"FRM_AIS_EDR_2063.DAT           ",2005-08-23T09:30:15.49 ,"1/0072869410.24085",    0,   45,  213808,"AIS","B1","B1","B0","B0","PISd",0,0,0,0,"B1", 0,15,   0, 0,    0,"AIS","N/A    ","OK ","OK ",    000745.140,    -049.344,    0092.290,    0014.869,    0041.254
"FRM_AIS_EDR_2063.DAT           ",2005-08-23T09:30:23.03 ,"1/0072869417.59684",    0,   46,  213808,"AIS","B1","B1","B0","B0","PISd",0,0,0,0,"B1", 0,15,   0, 0,    0,"AIS","N/A    ","OK ","OK ",    000736.709,    -048.946,    0092.315,    0014.873,    0041.150
"FRM_AIS_EDR_2063.DAT           ",2005-08-23T09:30:30.58 ,"1/0072869425.29747",    0,   47,  213808,"AIS","B1","B1","B0","B0","PISd",0,0,0,0,"B1", 0,15,   0, 0,    0,"AIS","N/A    ","OK ","OK ",    000728.336,    -048.546,    0092.338,    0014.877,    0041.049
"FRM_AIS_EDR_2063.DAT           ",2005-08-23T09:30:38.12 ,"1/0072869432.65347",    0,   48,  213808,"AIS","B1","B1","B0","B0","PISd",0,0,0,0,"B1", 0,15,   0, 0,    0,"AIS","N/A    ","OK ","OK ",    000720.021,    -048.145,    0092.361,    0014.880,    0040.951
"FRM_AIS_EDR_2063.DAT           ",2005-08-23T09:30:45.66 ,"1/0072869440.35410",    0,   49,  213808,"AIS","B1","B1","B0","B0","PISd",0,0,0,0,"B1", 0,15,   0, 0,    0,"AIS","N/A    ","OK ","OK ",    000711.765,    -047.742,    0092.384,    0014.884,    0040.855
"FRM_AIS_EDR_2063.DAT           ",2005-08-23T09:30:53.21 ,"1/0072869448.05473",    0,   50,  213808,"AIS","B1","B1","B0","B0","PISd",0,0,0,0,"B1", 0,15,   0, 0,    0,"AIS","N/A    ","OK ","OK ",    000703.568,    -047.337,    0092.406,    0014.887,    0040.763
"FRM_AIS_EDR_2063.DAT           ",2005-08-23T09:31:00.75 ,"1/0072869455.41073",    0,   51,  213808,"AIS","B1","B1","B0","B0","PISd",0,0,0,0,"B1", 0,15,   0, 0,    0,"AIS","N/A    ","OK ","OK ",    000695.431,    -046.931,    0092.427,    0014.891,    0040.673
"FRM_AIS_EDR_2063.DAT           ",2005-08-23T09:31:08.29 ,"1/0072869463.11136",    0,   52,  213808,"AIS","B1","B1","B0","B0","PISd",0,0,0,0,"B1", 0,15,   0, 0,    0,"AIS","N/A    ","OK ","OK ",    000687.354,    -046.523,    0092.448,    0014.894,    0040.585
"FRM_AIS_EDR_2063.DAT           ",2005-08-23T09:31:15.84 ,"1/0072869470.46735",    0,   53,  213808,"AIS","B1","B1","B0","B0","PISd",0,0,0,0,"B1", 0,15,   0, 0,    0,"AIS","N/A    ","OK ","OK ",    000679.339,    -046.114,    0092.468,    0014.898,    0040.501
"FRM_AIS_EDR_2063.DAT           ",2005-08-23T09:31:23.38 ,"1/0072869478.16799",    0,   54,  213808,"AIS","B1","B1","B0","B0","PISd",0,0,0,0,"B1", 0,15,   0, 0,    0,"AIS","N/A    ","OK ","OK ",    000671.386,    -045.703,    0092.488,    0014.901,    0040.420
"FRM_AIS_EDR_2063.DAT           ",2005-08-23T09:31:30.92 ,"1/0072869485.52398",    0,   55,  213808,"AIS","B1","B1","B0","B0","PISd",0,0,0,0,"B1", 0,15,   0, 0,    0,"AIS","N/A    ","OK ","OK ",    000663.495,    -045.290,    0092.507,    0014.904,    0040.342
"FRM_AIS_EDR_2063.DAT           ",2005-08-23T09:31:38.46 ,"1/0072869493.22461",    0,   56,  213808,"AIS","B1","B1","B0","B0","PISd",0,0,0,0,"B1", 0,15,   0, 0,    0,"AIS","N/A    ","OK ","OK ",    000655.668,    -044.876,    0092.525,    0014.908,    0040.267
"FRM_AIS_EDR_2063.DAT           ",2005-08-23T09:31:46.01 ,"1/0072869500.58061",    0,   57,  213808,"AIS","B1","B1","B0","B0","PISd",0,0,0,0,"B1", 0,15,   0, 0,    0,"AIS","N/A    ","OK ","OK ",    000647.905,    -044.460,    0092.543,    0014.911,    0040.195
"FRM_AIS_EDR_2063.DAT           ",2005-08-23T09:31:53.55 ,"1/0072869508.28124",    0,   58,  213808,"AIS","B1","B1","B0","B0","PISd",0,0,0,0,"B1", 0,15,   0, 0,    0,"AIS","N/A    ","OK ","OK ",    000640.206,    -044.043,    0092.561,    0014.914,    0040.126
"FRM_AIS_EDR_2063.DAT           ",2005-08-23T09:32:01.09 ,"1/0072869515.63723",    0,   59,  213808,"AIS","B1","B1","B0","B0","PISd",0,0,0,0,"B1", 0,15,   0, 0,    0,"AIS","N/A    ","OK ","OK ",    000632.573,    -043.623,    0092.578,    0014.917,    0040.060
"FRM_AIS_EDR_2063.DAT           ",2005-08-23T09:32:08.64 ,"1/0072869523.33787",    0,   60,  213808,"AIS","B1","B1","B0","B0","PISd",0,0,0,0,"B1", 0,15,   0, 0,    0,"AIS","N/A    ","OK ","OK ",    000625.006,    -043.203,    0092.594,    0014.920,    0039.998
"FRM_AIS_EDR_2063.DAT           ",2005-08-23T09:32:16.18 ,"1/0072869531.03850",    0,   61,  213808,"AIS","B1","B1","B0","B0","PISd",0,0,0,0,"B1", 0,15,   0, 0,    0,"AIS","N/A    ","OK ","OK ",    000617.505,    -042.781,    0092.610,    0014.923,    0039.940
"FRM_AIS_EDR_2063.DAT           ",2005-08-23T09:32:23.72 ,"1/0072869538.39449",    0,   62,  213808,"AIS","B1","B1","B0","B0","PISd",0,0,0,0,"B1", 0,15,   0, 0,    0,"AIS","N/A    ","OK ","OK ",    000610.072,    -042.357,    0092.626,    0014.926,    0039.885
"FRM_AIS_EDR_2063.DAT           ",2005-08-23T09:32:31.27 ,"1/0072869546.09513",    0,   63,  213808,"AIS","B1","B1","B0","B0","PISd",0,0,0,0,"B1", 0,15,   0, 0,    0,"AIS","N/A    ","OK ","OK ",    000602.708,    -041.931,    0092.641,    0014.929,    0039.833
"FRM_AIS_EDR_2063.DAT           ",2005-08-23T09:32:38.81 ,"1/0072869553.45112",    0,   64,  213808,"AIS","B1","B1","B0","B0","PISd",0,0,0,0,"B1", 0,15,   0, 0,    0,"AIS","N/A    ","OK ","OK ",    000595.411,    -041.505,    0092.656,    0014.932,    0039.785
"FRM_AIS_EDR_2063.DAT           ",2005-08-23T09:32:46.35 ,"1/0072869561.15175",    0,   65,  213808,"AIS","B1","B1","B0","B0","PISd",0,0,0,0,"B1", 0,15,   0, 0,    0,"AIS","N/A    ","OK ","OK ",    000588.185,    -041.076,    0092.670,    0014.936,    0039.740
"FRM_AIS_EDR_2063.DAT           ",2005-08-23T09:32:53.90 ,"1/0072869568.50775",    0,   66,  213808,"AIS","B1","B1","B0","B0","PISd",0,0,0,0,"B1", 0,15,   0, 0,    0,"AIS","N/A    ","OK ","OK ",    000581.028,    -040.646,    0092.684,    0014.938,    0039.700
"FRM_AIS_EDR_2063.DAT           ",2005-08-23T09:33:01.44 ,"1/0072869576.20838",    0,   67,  213808,"AIS","B1","B1","B0","B0","PISd",0,0,0,0,"B1", 0,15,   0, 0,    0,"AIS","N/A    ","OK ","OK ",    000573.943,    -040.215,    0092.697,    0014.941,    0039.663
"FRM_AIS_EDR_2063.DAT           ",2005-08-23T09:33:08.98 ,"1/0072869583.56437",    0,   68,  213808,"AIS","B1","B1","B0","B0","PISd",0,0,0,0,"B1", 0,15,   0, 0,    0,"AIS","N/A    ","OK ","OK ",    000566.929,    -039.782,    0092.710,    0014.944,    0039.630
"FRM_AIS_EDR_2063.DAT           ",2005-08-23T09:33:16.53 ,"1/0072869591.26500",    0,   69,  213808,"AIS","B1","B1","B0","B0","PISd",0,0,0,0,"B1", 0,15,   0, 0,    0,"AIS","N/A    ","OK ","OK ",    000559.987,    -039.347,    0092.723,    0014.947,    0039.600
"FRM_AIS_EDR_2063.DAT           ",2005-08-23T09:33:24.07 ,"1/0072869598.62100",    0,   70,  213808,"AIS","B1","B1","B0","B0","PISd",0,0,0,0,"B1", 0,15,   0, 0,    0,"AIS","N/A    ","OK ","OK ",    000553.118,    -038.911,    0092.735,    0014.950,    0039.575
"FRM_AIS_EDR_2063.DAT           ",2005-08-23T09:33:31.61 ,"1/0072869606.32163",    0,   71,  213808,"AIS","B1","B1","B0","B0","PISd",0,0,0,0,"B1", 0,15,   0, 0,    0,"AIS","N/A    ","OK ","OK ",    000546.322,    -038.473,    0092.747,    0014.953,    0039.554
"FRM_AIS_EDR_2063.DAT           ",2005-08-23T09:33:39.16 ,"1/0072869614.02226",    0,   72,  213808,"AIS","B1","B1","B0","B0","PISd",0,0,0,0,"B1", 0,15,   0, 0,    0,"AIS","N/A    ","OK ","OK ",    000539.601,    -038.034,    0092.758,    0014.956,    0039.536
"FRM_AIS_EDR_2063.DAT           ",2005-08-23T09:33:46.70 ,"1/0072869621.37826",    0,   73,  213808,"AIS","B1","B1","B0","B0","PISd",0,0,0,0,"B1", 0,15,   0, 0,    0,"AIS","N/A    ","OK ","OK ",    000532.955,    -037.594,    0092.769,    0014.958,    0039.523
"FRM_AIS_EDR_2063.DAT           ",2005-08-23T09:33:54.24 ,"1/0072869629.07889",    0,   74,  213808,"AIS","B1","B1","B0","B0","PISd",0,0,0,0,"B1", 0,15,   0, 0,    0,"AIS","N/A    ","OK ","OK ",    000526.384,    -037.152,    0092.780,    0014.961,    0039.514
"FRM_AIS_EDR_2063.DAT           ",2005-08-23T09:34:01.79 ,"1/0072869636.43488",    0,   75,  213808,"AIS","B1","B1","B0","B0","PISd",0,0,0,0,"B1", 0,15,   0, 0,    0,"AIS","N/A    ","OK ","OK ",    000519.890,    -036.708,    0092.790,    0014.964,    0039.509
"FRM_AIS_EDR_2063.DAT           ",2005-08-23T09:34:09.33 ,"1/0072869644.13552",    0,   76,  213808,"AIS","B1","B1","B0","B0","PISd",0,0,0,0,"B1", 0,15,   0, 0,    0,"AIS","N/A    ","OK ","OK ",    000513.472,    -036.263,    0092.800,    0014.967,    0039.508
"FRM_AIS_EDR_2063.DAT           ",2005-08-23T09:34:16.87 ,"1/0072869651.49151",    0,   77,  213808,"AIS","B1","B1","B0","B0","PISd",0,0,0,0,"B1", 0,15,   0, 0,    0,"AIS","N/A    ","OK ","OK ",    000507.132,    -035.817,    0092.810,    0014.969,    0039.512
"FRM_AIS_EDR_2063.DAT           ",2005-08-23T09:34:24.42 ,"1/0072869659.19214",    0,   78,  213808,"AIS","B1","B1","B0","B0","PISd",0,0,0,0,"B1", 0,15,   0, 0,    0,"AIS","N/A    ","OK ","OK ",    000500.871,    -035.369,    0092.820,    0014.972,    0039.520
"FRM_AIS_EDR_2063.DAT           ",2005-08-23T09:34:31.96 ,"1/0072869666.54814",    0,   79,  213808,"AIS","B1","B1","B0","B0","PISd",0,0,0,0,"B1", 0,15,   0, 0,    0,"AIS","N/A    ","OK ","OK ",    000494.688,    -034.920,    0092.829,    0014.975,    0039.532
"FRM_AIS_EDR_2063.DAT           ",2005-08-23T09:34:39.50 ,"1/0072869674.24877",    0,   80,  213808,"AIS","B1","B1","B0","B0","PISd",0,0,0,0,"B1", 0,15,   0, 0,    0,"AIS","N/A    ","OK ","OK ",    000488.585,    -034.469,    0092.837,    0014.977,    0039.549
"FRM_AIS_EDR_2063.DAT           ",2005-08-23T09:34:47.04 ,"1/0072869681.60476",    0,   81,  213808,"AIS","B1","B1","B0","B0","PISd",0,0,0,0,"B1", 0,15,   0, 0,    0,"AIS","N/A    ","OK ","OK ",    000482.563,    -034.017,    0092.846,    0014.980,    0039.569
"FRM_AIS_EDR_2063.DAT           ",2005-08-23T09:34:54.59 ,"1/0072869689.30540",    0,   82,  213808,"AIS","B1","B1","B0","B0","PISd",0,0,0,0,"B1", 0,15,   0, 0,    0,"AIS","N/A    ","OK ","OK ",    000476.621,    -033.564,    0092.854,    0014.982,    0039.595
"FRM_AIS_EDR_2063.DAT           ",2005-08-23T09:35:02.13 ,"1/0072869697.00603",    0,   83,  213808,"AIS","B1","B1","B0","B0","PISd",0,0,0,0,"B1", 0,15,   0, 0,    0,"AIS","N/A    ","OK ","OK ",    000470.761,    -033.109,    0092.862,    0014.985,    0039.625
"FRM_AIS_EDR_2063.DAT           ",2005-08-23T09:35:09.67 ,"1/0072869704.36202",    0,   84,  213808,"AIS","B1","B1","B0","B0","PISd",0,0,0,0,"B1", 0,15,   0, 0,    0,"AIS","N/A    ","OK ","OK ",    000464.983,    -032.653,    0092.869,    0014.988,    0039.659
"FRM_AIS_EDR_2063.DAT           ",2005-08-23T09:35:17.22 ,"1/0072869712.06266",    0,   85,  213808,"AIS","B1","B1","B0","B0","PISd",0,0,0,0,"B1", 0,15,   0, 0,    0,"AIS","N/A    ","OK ","OK ",    000459.288,    -032.195,    0092.877,    0014.990,    0039.698
"FRM_AIS_EDR_2063.DAT           ",2005-08-23T09:35:24.76 ,"1/0072869719.41865",    0,   86,  213808,"AIS","B1","B1","B0","B0","PISd",0,0,0,0,"B1", 0,15,   0, 0,    0,"AIS","N/A    ","OK ","OK ",    000453.676,    -031.736,    0092.884,    0014.992,    0039.742
"FRM_AIS_EDR_2063.DAT           ",2005-08-23T09:35:32.30 ,"1/0072869727.11928",    0,   87,  213808,"AIS","B1","B1","B0","B0","PISd",0,0,0,0,"B1", 0,15,   0, 0,    0,"AIS","N/A    ","OK ","OK ",    000448.149,    -031.276,    0092.891,    0014.995,    0039.790
"FRM_AIS_EDR_2063.DAT           ",2005-08-23T09:35:39.85 ,"1/0072869734.47528",    0,   88,  213808,"AIS","B1","B1","B0","B0","PISd",0,0,0,0,"B1", 0,15,   0, 0,    0,"AIS","N/A    ","OK ","OK ",    000442.707,    -030.815,    0092.897,    0014.998,    0039.843
"FRM_AIS_EDR_2063.DAT           ",2005-08-23T09:35:47.39 ,"1/0072869742.17591",    0,   89,  213808,"AIS","B1","B1","B0","B0","PISd",0,0,0,0,"B1", 0,15,   0, 0,    0,"AIS","N/A    ","OK ","OK ",    000437.349,    -030.352,    0092.903,    0015.000,    0039.900
"FRM_AIS_EDR_2063.DAT           ",2005-08-23T09:35:54.93 ,"1/0072869749.53190",    0,   90,  213808,"AIS","B1","B1","B0","B0","PISd",0,0,0,0,"B1", 0,15,   0, 0,    0,"AIS","N/A    ","OK ","OK ",    000432.078,    -029.888,    0092.909,    0015.002,    0039.962